Toledo Express Airport
KTOL : now visible

Airfield :











YOU CAN JOIN US ON...

 
LOGIN :

Register | Disclaimer

   EN    FR    IT 

 









Legend :    VFR   Marginal VFR   IFR   Intensive IFR   Very Intensive IFR
Visi :
Ceiling :
>= 8 km
>= 3000ft
5 to 8 km
1000 to 3000 ft
1500m to 5 km
500 to 1000 ft
800 to 1500m
200 to 500 ft
< 800m
< 200 ft
Symbols :   Thunderstorms  Fog  Heavy snow  Heavy precipitations  Wind > 20 kt






- Airport Elevation : 683 ft
- IATA code : TOL


KTOL - Toledo Express

CURRENT METAR :
  • 161752Z 09006KT 10SM CLR 26/12 A3015 RMK AO2 SLP206 T02560122 10261 20133 58010

EXPIRED METARs :
  • 161652Z VRB05KT 10SM FEW030 25/12 A3016 RMK AO2 SLP210 T02500122
  • 161552Z 10007KT 070V140 10SM CLR 24/12 A3017 RMK AO2 SLP214 T02390122

TAF KTOL
Valid from the 16 at 18:00 until the 17 at 18:00 UTC


161720Z 1618/1718 09008KT P6SM SCT050
FM170700 00000KT 1SM BR SCT002
FM171400 20005KT P6SM FEW250
KZOB FIR / North America



MET'MAP, your aeronautical weather chart ! - Copyright ORBIFLY December 2007 - Disclaimer

ORBIFLY MET'MAP TEAM :

Programming & Development : Alexandra Zaïnal
Concept & original design : Baudouin d'Aumeries
Assistance for programming : Marc-Olivier Méhu
Technical & hardware support : Manuel Goepfert

Contact : metmap@orbifly.com




SOURCES & CREDITS :

   NOAA       Earth
Advisory